Regional Weather Roundup
Issued by NWS

Home | Current Version | Previous Version | Text Only | Print | Product List | Glossary On
Versions: 1 2 3 4 5 6 7 8 9 10 11 12 13 14 15 16 17 18 19 20 21 22 23 24 25 26 27 28 29 30 31 32 33 34 35 36 37 38 39 40 41 42 43 44 45 46 47 48 49 50
000
ASUS44 KLIX 290412
RWRLA
LOUISIANA WEATHER ROUNDUP
NATIONAL WEATHER SERVICE NEW ORLEANS LA
1100 PM CDT THU MAY 28 2015

NOTE: "FAIR" INDICATES FEW OR NO CLOUDS BELOW 12,000 FEET WITH NO
      SIGNIFICANT WEATHER AND/OR OBSTRUCTIONS TO VISIBILITY.
      SKY/WX - SKY CONDITION AND SIGNIFICANT WEATHER.
      TMP - AIR TEMPERATURE.    DP   - DEWPOINT TEMPERATURE.
      RH  - RELATIVE HUMIDITY.  PRES - PRESSURE.
      HX  - HEAT INDEX.         WCI  - WIND CHILL INDEX.

*  THESE STATIONS ARE NOT NWS OR FAA STATIONS AND ARE NOT UNDER
   NWS QUALITY CONTROL.

LAZ040-048-061>063-065-066-069-290500-
SOUTHEAST LOUISIANA

CITY           SKY/WX    TMP DP  RH WIND       PRES   REMARKS
N.O. AUDUBON     N/A     78  76  92 MISG        N/A
N.O. INTL ARPT PTCLDY    78  72  81 S9        30.07S
N.O. LAKEFRONT CLEAR     81  72  74 SE9       30.07F
SLIDELL        CLEAR     76  74  93 SE5       30.07F
BATON ROUGE    CLEAR     78  70  76 SE7       30.04S
BOOTHVILLE     CLEAR     76  72  87 SE5       30.09S
BELLE CHASSE   MOCLDY    77  71  82 SE6       30.07S
BOGALUSA*        N/A     76  70  84 CALM      30.09F
GALLIANO*      CLEAR     76  73  88 CALM      30.07F
NEW ROADS*     FAIR      76  69  79 E5        30.02F
GONZALES*      FAIR      79  73  83 SE6       30.04S
HAMMOND*       CLEAR     77  72  83 SE6       30.08S
HOUMA*         CLEAR     75  73  93 SE5       30.06F
PORT FOURCHON* CLEAR     81  72  74 SE10G18   30.08S

$$

LAZ041-044-053-054-290500-
SOUTHWEST LOUISIANA

CITY           SKY/WX    TMP DP  RH WIND       PRES   REMARKS
LAKE CHARLES   CLEAR     77  73  87 CALM      30.02R
LAFAYETTE      CLEAR     79  74  84 S3        30.03S
PATTERSON      PTCLDY    75  72  88 SE6       30.06S
SALT POINT       N/A     78  75  90 SE5       30.03S
NEW IBERIA     CLEAR     77  74  90 S5        30.03F
CHENAULT AIRPK CLEAR     75  73  96 S3        30.02S

$$

LAZ027-028-290500-
CENTRAL LOUISIANA

CITY           SKY/WX    TMP DP  RH WIND       PRES   REMARKS
FORT POLK      CLEAR     73  68  84 E5        30.01R
ALEXANDRIA INT MOCLDY    74  70  87 CALM      30.01R
ALEXANDRIA     CLOUDY    72  69  90 CALM      30.03R

$$

LAZ001-002-290500-
NORTHWEST LOUISIANA

CITY           SKY/WX    TMP DP  RH WIND       PRES   REMARKS
SHREVEPORT     PTCLDY    72  67  84 SE6       30.01S
BARKSDALE AFB  PTCLDY    71  68  92 SE8       30.02S
DTN SHREVEPORT CLEAR     72  66  81 SE9       30.02R

$$

LAZ014-016-290500-
NORTHEAST LOUISIANA

CITY           SKY/WX    TMP DP  RH WIND       PRES   REMARKS
MONROE         CLOUDY    75  72  90 CALM      30.03S
TALLULAH       MOCLDY    76  69  79 E8        30.03F

$$




USA.gov is the U.S. government's official web portal to all federal, state and local government web resources and services.